When you browse on this site, cookies collect data to enhance your experience and personalize the content and advertising you see.
Visit our Privacy Policy to learn more. By continuing to use the site, you agree to this use of cookies and data.
  • In Latvia
  • List of Countries
  • For 7 days
  • Water Temperature
  • Satellite Maps
  • Weather Map
  • Weather Widgets
  • user-avatar
    Login

    Hourly Weather Igls

    Today, 24 June, Monday

    Time Temperature Precipitation Wind Pressure Humidity
    00:00 +15°C° 0 mm 1 mps 687 mmHg 94%
    01:00 +15°C° 0 mm 1 mps 688 mmHg 93%
    02:00 +14°C° 0 mm 1 mps 688 mmHg 92%
    03:00 +14°C° 0 mm 1 mps 688 mmHg 91%
    04:00 +14°C° 0 mm 1 mps 688 mmHg 90%
    05:00 +16°C° 0 mm 1 mps 688 mmHg 83%
    06:00 +17°C° 0 mm 0 mps 689 mmHg 77%
    07:00 +20°C° 0 mm 0 mps 689 mmHg 67%
    08:00 +22°C° 0 mm 0 mps 689 mmHg 60%
    09:00 +26°C° 0 mm 1 mps 690 mmHg 52%
    10:00 +28°C° 0 mm 1 mps 690 mmHg 44%
    11:00 +29°C° 0 mm 1 mps 690 mmHg 42%
    12:00 +30°C° 0 mm 1 mps 690 mmHg 40%
    13:00 +31°C° 0 mm 1 mps 690 mmHg 37%
    14:00 +30°C° 0 mm 2 mps 690 mmHg 39%
    15:00 +30°C° 0 mm 2 mps 690 mmHg 40%
    16:00 +30°C° 0 mm 2 mps 690 mmHg 41%
    17:00 +29°C° 0 mm 2 mps 690 mmHg 52%
    18:00 +27°C° 0 mm 1 mps 690 mmHg 63%
    19:00 +26°C° 0 mm 1 mps 690 mmHg 73%
    20:00 +23°C° 0 mm 1 mps 690 mmHg 78%
    21:00 +21°C° 0 mm 1 mps 689 mmHg 82%
    22:00 +19°C° 0 mm 1 mps 689 mmHg 86%
    23:00 +19°C° 0 mm 1 mps 689 mmHg 85%

    Tomorrow, 25 June, Tuesday

    Time Temperature Precipitation Wind Pressure Humidity
    00:00 +19°C° 0 mm 1 mps 690 mmHg 85%
    01:00 +18°C° 0 mm 2 mps 690 mmHg 84%
    02:00 +18°C° 0 mm 2 mps 689 mmHg 84%
    03:00 +18°C° 0 mm 2 mps 689 mmHg 83%
    04:00 +18°C° 0 mm 1 mps 689 mmHg 83%
    05:00 +21°C° 0 mm 1 mps 689 mmHg 76%
    06:00 +23°C° 0 mm 1 mps 690 mmHg 70%
    07:00 +25°C° 0 mm 1 mps 691 mmHg 63%
    08:00 +28°C° 0 mm 1 mps 691 mmHg 54%
    09:00 +30°C° 0 mm 1 mps 692 mmHg 44%
    10:00 +33°C° 0 mm 1 mps 692 mmHg 35%
    11:00 +34°C° 0 mm 1 mps 692 mmHg 32%
    12:00 +34°C° 0 mm 1 mps 692 mmHg 29%
    13:00 +36°C° 0 mm 2 mps 692 mmHg 26%
    14:00 +36°C° 0 mm 2 mps 692 mmHg 27%
    15:00 +35°C° 0 mm 2 mps 692 mmHg 29%
    16:00 +35°C° 0 mm 2 mps 692 mmHg 30%
    17:00 +32°C° 0 mm 2 mps 692 mmHg 41%
    18:00 +30°C° 0 mm 2 mps 692 mmHg 52%
    19:00 +28°C° 0 mm 1 mps 692 mmHg 63%
    20:00 +26°C° 0 mm 1 mps 692 mmHg 67%
    21:00 +24°C° 0 mm 1 mps 692 mmHg 72%
    22:00 +22°C° 0 mm 1 mps 692 mmHg 76%
    23:00 +21°C° 0 mm 1 mps 692 mmHg 73%

    Day after tomorrow, 26 June, Wednesday

    Time Temperature Precipitation Wind Pressure Humidity
    00:00 +21°C° 0 mm 1 mps 692 mmHg 71%
    01:00 +21°C° 0 mm 1 mps 692 mmHg 68%
    02:00 +21°C° 0 mm 1 mps 692 mmHg 66%
    03:00 +20°C° 0 mm 1 mps 691 mmHg 64%
    04:00 +20°C° 0 mm 1 mps 691 mmHg 62%
    05:00 +22°C° 0 mm 1 mps 692 mmHg 58%
    06:00 +25°C° 0 mm 1 mps 693 mmHg 54%
    07:00 +27°C° 0 mm 1 mps 693 mmHg 50%
    08:00 +29°C° 0 mm 1 mps 694 mmHg 42%
    09:00 +32°C° 0 mm 1 mps 694 mmHg 35%
    10:00 +34°C° 0 mm 1 mps 694 mmHg 28%
    11:00 +34°C° 0 mm 1 mps 694 mmHg 27%
    12:00 +36°C° 0 mm 2 mps 694 mmHg 25%
    13:00 +36°C° 0 mm 2 mps 694 mmHg 24%
    14:00 +36°C° 0 mm 2 mps 694 mmHg 25%
    15:00 +36°C° 0 mm 2 mps 694 mmHg 27%
    16:00 +35°C° 0 mm 3 mps 693 mmHg 29%
    17:00 +32°C° 0 mm 2 mps 693 mmHg 39%
    18:00 +30°C° 0 mm 2 mps 693 mmHg 50%
    19:00 +29°C° 0 mm 1 mps 692 mmHg 60%
    20:00 +26°C° 0 mm 1 mps 692 mmHg 65%
    21:00 +24°C° 0 mm 1 mps 692 mmHg 69%
    22:00 +22°C° 0 mm 1 mps 692 mmHg 74%
    23:00 +22°C° 0 mm 1 mps 692 mmHg 73%

    27 June, Thursday

    Time Temperature Precipitation Wind Pressure Humidity
    00:00 +22°C° 0 mm 1 mps 692 mmHg 72%
    01:00 +21°C° 0 mm 1 mps 692 mmHg 72%
    02:00 +21°C° 0 mm 1 mps 691 mmHg 71%
    03:00 +21°C° 0 mm 1 mps 691 mmHg 70%
    04:00 +21°C° 0 mm 1 mps 691 mmHg 69%
    05:00 +23°C° 0 mm 1 mps 691 mmHg 64%
    06:00 +25°C° 0 mm 1 mps 692 mmHg 59%
    07:00 +27°C° 0 mm 1 mps 692 mmHg 55%
    08:00 +29°C° 0 mm 1 mps 692 mmHg 47%
    09:00 +31°C° 0 mm 1 mps 693 mmHg 40%
    10:00 +33°C° 0 mm 1 mps 693 mmHg 33%
    11:00 +35°C° 0 mm 2 mps 693 mmHg 32%
    12:00 +35°C° 0 mm 2 mps 692 mmHg 31%
    13:00 +35°C° 0 mm 3 mps 692 mmHg 30%
    14:00 +35°C° 0 mm 3 mps 692 mmHg 32%
    15:00 +34°C° 0 mm 3 mps 691 mmHg 35%
    16:00 +34°C° 0 mm 3 mps 691 mmHg 37%
    17:00 +31°C° 0.2 mm 3 mps 691 mmHg 49%
    18:00 +29°C° 0.2 mm 2 mps 691 mmHg 60%
    19:00 +28°C° 0.2 mm 2 mps 690 mmHg 71%
    20:00 +26°C° 0.3 mm 1 mps 690 mmHg 77%
    21:00 +24°C° 0.3 mm 1 mps 690 mmHg 83%
    22:00 +22°C° 0.3 mm 1 mps 690 mmHg 89%
    23:00 +21°C° 0 mm 1 mps 690 mmHg 90%

    28 June, Friday

    Time Temperature Precipitation Wind Pressure Humidity
    00:00 +21°C° 0 mm 1 mps 690 mmHg 90%
    01:00 +20°C° 0 mm 1 mps 690 mmHg 91%
    02:00 +20°C° 0 mm 1 mps 689 mmHg 91%
    03:00 +19°C° 0 mm 1 mps 689 mmHg 90%
    04:00 +19°C° 0 mm 1 mps 689 mmHg 90%
    05:00 +21°C° 0 mm 1 mps 689 mmHg 87%
    06:00 +22°C° 0 mm 1 mps 689 mmHg 83%
    07:00 +24°C° 0 mm 1 mps 690 mmHg 80%
    08:00 +26°C° 0 mm 1 mps 690 mmHg 69%
    09:00 +28°C° 0 mm 1 mps 690 mmHg 58%
    10:00 +30°C° 0 mm 2 mps 690 mmHg 47%
    11:00 +30°C° 0 mm 2 mps 690 mmHg 43%
    12:00 +31°C° 0 mm 2 mps 690 mmHg 38%
    13:00 +33°C° 0 mm 3 mps 690 mmHg 33%
    14:00 +31°C° 0 mm 3 mps 690 mmHg 35%
    15:00 +31°C° 0 mm 3 mps 690 mmHg 36%
    16:00 +30°C° 0 mm 3 mps 689 mmHg 38%
    17:00 +28°C° 0 mm 3 mps 689 mmHg 46%
    18:00 +27°C° 0 mm 2 mps 689 mmHg 54%
    19:00 +25°C° 0 mm 2 mps 689 mmHg 62%
    20:00 +23°C° 0 mm 1 mps 689 mmHg 68%
    21:00 +20°C° 0 mm 1 mps 688 mmHg 75%
    22:00 +18°C° 0 mm 1 mps 688 mmHg 82%
    23:00 +18°C° 0 mm 1 mps 688 mmHg 82%

    29 June, Saturday

    Time Temperature Precipitation Wind Pressure Humidity
    00:00 +16°C° 0 mm 1 mps 688 mmHg 82%
    01:00 +16°C° 0 mm 1 mps 688 mmHg 83%
    02:00 +16°C° 0 mm 1 mps 688 mmHg 82%
    03:00 +15°C° 0 mm 1 mps 687 mmHg 82%
    04:00 +15°C° 0 mm 1 mps 687 mmHg 81%
    05:00 +18°C° 0 mm 1 mps 688 mmHg 72%
    06:00 +21°C° 0 mm 1 mps 688 mmHg 64%
    07:00 +21°C° 0 mm 0 mps 689 mmHg 55%
    08:00 +25°C° 0 mm 1 mps 689 mmHg 47%
    09:00 +27°C° 0 mm 1 mps 689 mmHg 39%
    10:00 +29°C° 0 mm 2 mps 689 mmHg 31%
    11:00 +30°C° 0 mm 2 mps 689 mmHg 29%
    12:00 +31°C° 0 mm 2 mps 689 mmHg 28%
    13:00 +32°C° 0 mm 2 mps 689 mmHg 26%
    14:00 +31°C° 0 mm 2 mps 689 mmHg 28%
    15:00 +31°C° 0 mm 2 mps 688 mmHg 29%
    16:00 +31°C° 0 mm 2 mps 688 mmHg 31%
    17:00 +29°C° 0 mm 2 mps 688 mmHg 42%
    18:00 +27°C° 0 mm 2 mps 688 mmHg 53%
    19:00 +26°C° 0 mm 1 mps 688 mmHg 64%
    20:00 +23°C° 0 mm 1 mps 688 mmHg 70%
    21:00 +21°C° 0 mm 1 mps 687 mmHg 75%
    22:00 +19°C° 0 mm 1 mps 687 mmHg 81%
    23:00 +19°C° 0 mm 1 mps 687 mmHg 77%
    Show more